This demonstration page uses our WeatherBlox Daily Observations layout. Learn more.

39.29038, -76.61219

Hourly Observations for January 15, 2019

Temp ( °F °C ) Dew Point ( °F °C ) Humidity (%) Winds ( mph kmh ) Pressure ( in mb ) Visibility ( mi km ) Precip ( " mm )
12:54 am 00:54 Clear 24 -4.4 20 -6.7 84 84 W 5 7 30.15 1021 10 16.09344 0 0
1:54 am 01:54 Clear 24 -4.4 20 -6.7 84 84 W 5 7 30.15 1021 10 16.09344 0 0
2:54 am 02:54 Clear 23 -5 20 -6.7 88 88 W 5 7 30.15 1021 10 16.09344 0 0
3:54 am 03:54 Clear 23 -5 20 -6.7 88 88 W 5 7 30.15 1021 10 16.09344 0 0
4:54 am 04:54 Clear 23 -5 20 -6.7 88 88 W 5 7 30.15 1021 10 16.09344 0 0
5:54 am 05:54 Clear 22 -5.6 19 -7.2 89 89 W 5 7 30.15 1021 10 16.09344 0 0
6:54 am 06:54 Clear 23 -5 20 -6.7 88 88 W 3 6 30.15 1021 10 16.09344 0 0
7:54 am 07:54 Mostly Sunny 21 -6.1 19 -7.2 92 92 W 3 6 30.18 1022 10 16.09344 0 0
8:54 am 08:54 Mostly Sunny 28 -2.2 22 -5.6 78 78 W 3 6 30.21 1023 10 16.09344 0 0
9:54 am 09:54 Mostly Sunny 33 0.6 22 -5.6 64 64 NNW 7 11 30.21 1023 10 16.09344 0 0
10:54 am 10:54 Partly Cloudy 35 1.7 23 -5 61 61 NW 6 9 30.21 1023 10 16.09344 0 0
11:54 am 11:54 Mostly Cloudy 37 2.8 22 -5.6 54 54 VRB 6 9 30.18 1022 10 16.09344 0 0
12:54 pm 12:54 Mostly Cloudy 37 2.8 23 -5 57 57 WNW 7 11 30.15 1021 10 16.09344 0 0
1:54 pm 13:54 Mostly Cloudy 37 2.8 22 -5.6 54 54 NW 8 13 30.15 1021 10 16.09344 0 0
2:54 pm 14:54 Mostly Cloudy 35 1.7 23 -5 61 61 NW 7 11 30.15 1021 10 16.09344 0 0
3:54 pm 15:54 Partly Cloudy 35 1.7 23 -5 61 61 W 12 19 30.15 1021 10 16.09344 0 0
4:54 pm 16:54 Mostly Sunny 34 1.1 22 -5.6 61 61 WNW 8 13 30.15 1021 10 16.09344 0 0
5:54 pm 17:54 Mostly Clear 30 -1.1 22 -5.6 72 72 Calm 30.15 1021 10 16.09344 0 0
6:54 pm 18:54 Clear 27 -2.8 22 -5.6 81 81 Calm 30.15 1021 10 16.09344 0 0
7:54 pm 19:54 Mostly Clear 27 -2.8 21 -6.1 78 78 W 5 7 30.15 1021 10 16.09344 0 0
8:54 pm 20:54 Clear 28 -2.2 22 -5.6 78 78 WSW 3 6 30.15 1021 10 16.09344 0 0
9:54 pm 21:54 Clear 25 -3.9 21 -6.1 85 85 Calm 30.15 1021 10 16.09344 0 0
10:54 pm 22:54 Clear 25 -3.9 20 -6.7 81 81 Calm 30.15 1021 10 16.09344 0 0
11:54 pm 23:54 Clear 22 -5.6 20 -6.7 92 92 Calm 30.12 1020 10 16.09344 0 0

Powered by AerisWeather